Wind_Speed
2 2 2 2 3 4 5 5 5 4 5 6 6 6 6 6 7 7 7 8 9 10 11 11 12 11 11 11 11 12 13 13 15 16 16 17 16 17 17 17 18 19 20 21
3 3 4 3 4 4 4 4 5 5 5 6 6 6 6 6 6 7 7 8 9 10 10 11 11 11 11 11 12 12 13 14 15 16 17 17 17 17 18 18 18 19 20 21
5 5 5 5 5 5 5 6 6 5 6 6 6 6 6 7 7 7 8 8 9 10 10 11 11 11 12 13 13 14 15 16 16 17 17 17 17 18 18 19 19 20 22 23
6 7 6 7 7 7 7 7 7 7 7 8 8 8 8 8 8 9 9 10 10 11 12 12 13 14 14 14 15 15 16 17 17 18 18 19 19 19 20 20 21 22 23 24
9 9 8 8 9 10 10 9 9 9 9 10 10 10 10 10 11 11 12 12 12 13 13 14 15 15 16 16 16 17 18 19 20 20 21 21 21 22 22 23 23 24 25 25
13 13 11 11 11 11 12 11 12 12 11 12 12 12 12 14 14 14 14 15 15 15 15 15 16 17 17 18 18 19 19 20 21 22 22 23 23 24 25 25 26 27 27 28
16 16 14 15 15 14 14 15 15 15 14 14 14 15 15 16 17 17 17 18 18 18 18 18 18 19 19 20 21 21 22 23 23 24 24 25 26 27 27 28 29 30 29 30
19 18 18 18 18 18 18 17 17 17 17 17 18 18 18 18 19 18 19 19 19 19 20 20 21 21 22 22 23 24 25 25 26 26 27 28 29 30 31 31 32 32 32 32
22 21 21 21 22 21 21 20 20 20 20 21 21 21 21 21 21 21 21 22 22 22 22 22 23 24 24 25 25 26 27 27 28 28 29 30 31 32 33 33 34 34 34 34
25 24 25 25 25 25 25 24 23 23 23 23 23 23 23 23 24 24 25 25 25 25 25 25 25 26 26 27 28 29 30 30 31 31 32 33 34 34 35 35 36 36 36 37
29 29 29 29 29 29 29 29 28 27 26 25 25 25 25 26 27 27 27 27 28 28 27 28 28 29 29 30 31 31 32 33 33 34 34 35 36 36 37 37 37 37 38 38
31 30 31 31 31 31 31 30 30 30 28 28 28 28 28 28 28 29 29 29 29 29 29 30 30 30 31 31 32 33 33 34 35 35 36 36 37 37 38 39 39 39 40 41
35 34 33 32 31 32 32 32 32 32 31 31 31 31 31 31 30 30 30 30 30 31 31 32 32 32 33 33 34 34 34 35 36 36 37 38 39 40 40 40 41 42 43 43
37 37 35 34 33 33 33 33 33 33 33 33 33 33 32 32 33 33 33 33 33 33 33 33 33 33 33 34 34 35 36 37 37 38 39 40 41 41 42 42 43 43 43 44
39 39 38 37 35 35 34 34 34 34 34 34 34 34 34 34 34 35 35 35 35 34 34 34 34 34 34 35 35 36 37 38 39 40 40 41 42 43 43 43 43 43 44 44
42 41 41 39 37 37 36 35 34 34 34 34 34 34 35 35 35 35 35 35 35 35 34 34 34 34 35 36 37 38 38 39 40 40 41 42 43 43 43 43 43 43 44 45
43 42 41 40 39 38 37 36 35 35 34 34 34 34 34 34 35 35 35 35 35 35 35 35 35 35 36 37 38 39 39 40 40 40 41 42 43 43 43 43 43 43 44 45
43 42 41 40 39 38 37 37 36 35 34 34 34 34 35 35 35 35 35 36 36 35 35 35 36 36 37 38 39 39 40 40 40 41 42 43 43 42 42 42 43 43 43 43
41 41 41 40 39 39 38 37 36 36 36 36 36 35 36 36 35 35 36 36 36 35 36 36 36 36 37 37 38 38 39 40 40 41 42 42 41 41 42 42 42 42 41 41
38 38 39 38 38 38 37 37 36 36 35 35 35 35 35 35 35 35 35 35 35 35 35 35 35 36 36 37 38 39 39 40 40 41 41 40 40 41 41 41 41 41 40 39
36 37 37 36 36 35 35 35 35 35 35 34 34 35 35 35 35 35 35 35 35 35 35 35 35 36 36 37 38 38 39 40 40 40 40 40 40 40 40 40 39 38 37 36
34 34 34 34 33 33 33 34 33 34 34 34 34 34 34 34 34 34 34 34 34 35 35 36 36 37 37 38 38 39 39 40 40 40 40 40 39 39 39 39 37 36 35 34
32 32 32 32 32 32 33 33 33 33 33 33 34 34 34 34 34 34 33 33 34 35 36 36 36 37 37 38 38 39 39 40 40 40 40 39 38 38 37 36 35 34 33 33
34 33 33 33 33 32 32 33 34 34 34 34 34 34 34 34 34 34 34 34 34 35 35 35 36 36 36 37 38 38 39 39 39 39 38 37 36 36 35 34 33 33 33 32
35 34 35 34 34 34 34 34 35 35 35 35 35 35 34 34 34 34 34 34 34 34 34 34 35 35 35 36 37 38 38 38 38 37 36 34 34 33 33 33 33 32 32 32
36 36 35 35 35 35 35 35 35 35 36 36 36 35 35 34 34 34 33 34 34 34 34 34 34 35 35 36 37 37 37 36 35 34 33 33 32 32 32 32 32 32 31 31
38 37 36 36 36 35 35 34 34 34 35 35 35 35 35 34 34 34 34 34 34 34 34 34 34 34 35 36 36 35 35 34 33 32 32 31 31 31 31 31 31 31 30 29
Wind_Direction
356 340 318 298 290 283 281 278 277 270 266 269 273 278 279 282 288 292 293 294 298 303 303 302 305 310 311 310 309 307 307 307 307 305 303 301 301 300 296 292 288 284 280 278
332 311 307 306 300 294 289 286 284 278 274 277 281 285 284 287 293 296 299 300 303 307 308 306 306 308 309 308 308 310 312 313 312 311 308 304 303 301 298 295 292 289 286 283
328 315 308 310 307 303 297 296 296 290 283 285 291 291 289 292 296 302 307 307 305 308 312 313 311 310 311 310 310 309 310 313 314 314 312 309 307 305 302 299 296 293 291 287
315 308 305 306 301 300 301 301 299 295 290 288 289 290 289 291 297 301 305 306 306 308 310 311 310 310 310 311 311 311 312 312 313 313 311 310 308 306 305 303 301 298 296 293
305 301 302 300 299 296 295 295 294 292 291 290 290 290 288 291 297 299 300 302 303 305 307 307 308 308 308 308 309 309 310 309 309 310 309 307 307 306 305 304 302 301 299 297
296 295 296 296 295 293 288 287 287 288 287 288 288 289 290 289 291 293 293 296 300 303 305 307 307 307 306 305 306 307 308 309 308 308 308 306 305 305 304 303 302 301 299 297
291 290 290 290 290 290 287 284 282 283 284 285 285 287 289 289 290 291 292 295 297 300 302 304 306 305 304 303 304 305 307 307 308 307 307 307 306 305 305 303 301 300 298 297
289 289 287 284 285 285 284 285 284 282 282 283 283 285 286 287 287 288 290 292 294 297 299 300 301 302 302 301 302 304 305 305 305 306 306 306 306 305 304 303 302 301 300 298
285 286 287 283 282 282 282 282 283 282 282 282 282 282 284 285 287 288 289 290 291 293 294 297 298 299 299 300 301 303 303 304 304 304 304 305 305 305 304 304 304 302 301 299
282 280 281 282 282 281 281 280 280 281 281 280 281 281 282 284 285 287 287 288 288 290 292 294 296 297 297 299 300 301 302 303 303 304 304 305 305 305 304 305 304 303 301 300
281 279 277 278 279 280 280 280 280 280 280 279 279 280 281 282 284 285 286 287 288 289 290 292 294 295 296 297 298 299 300 301 302 303 304 304 305 305 305 305 304 303 302 301
279 279 279 278 277 278 278 279 279 278 277 278 279 281 281 282 283 284 286 287 288 288 289 291 293 294 296 297 298 299 299 300 301 302 303 304 304 304 305 304 304 302 302 302
278 278 278 278 277 277 278 278 278 277 277 277 279 280 280 281 282 283 284 286 287 288 289 290 292 294 295 296 297 299 300 301 302 302 303 304 304 304 304 303 303 302 301 301
276 276 276 276 277 278 277 276 276 277 277 277 277 278 279 280 281 282 283 285 287 288 289 291 292 293 294 295 297 298 299 300 301 301 302 303 304 304 304 303 303 302 302 302
273 274 275 276 276 276 275 275 275 276 276 276 277 277 278 280 281 282 283 285 286 288 289 290 291 292 294 296 297 298 299 300 300 301 301 302 303 304 304 303 303 302 302 303
271 272 273 274 274 274 274 274 275 275 275 275 276 276 277 279 281 283 284 285 286 288 289 290 291 292 294 296 297 298 299 300 301 301 302 303 303 304 304 303 303 303 303 304
271 271 271 272 272 273 273 273 273 275 275 276 276 277 279 280 281 283 284 285 286 287 288 289 291 292 294 296 297 298 299 300 301 302 303 303 304 304 304 304 304 304 304 304
271 270 270 270 271 272 271 272 272 273 274 276 277 278 279 280 281 282 283 284 286 287 288 289 291 293 294 296 297 298 299 300 301 302 303 304 304 304 304 304 305 305 305 306
271 269 269 269 270 269 270 270 270 271 272 274 276 277 279 281 282 283 284 285 285 286 288 289 291 293 295 296 297 299 300 301 302 304 305 305 304 304 305 306 306 307 307 308
272 270 268 268 268 267 268 268 269 270 272 273 275 276 278 280 282 282 283 285 286 287 288 290 292 294 296 297 298 299 301 302 304 305 305 304 304 304 305 306 307 308 308 309
272 270 269 268 268 267 268 269 271 271 272 273 275 276 277 279 280 281 282 284 286 287 288 290 292 294 296 298 299 300 302 303 304 305 305 304 304 305 306 307 308 309 309 310
273 270 268 267 267 267 268 269 271 271 271 272 274 276 277 279 280 281 283 285 286 287 289 291 293 295 296 298 300 301 303 304 304 305 305 304 304 305 306 307 308 309 310 311
272 271 269 268 267 268 269 270 271 272 272 273 274 276 277 279 280 281 283 284 286 288 290 292 294 295 296 297 299 301 303 304 305 305 304 304 304 305 306 306 307 308 310 311
272 270 270 269 269 270 270 271 271 272 272 273 274 276 277 278 280 281 283 285 287 289 291 293 295 296 297 298 299 301 303 304 305 305 305 304 304 304 305 306 307 308 310 311
271 271 271 270 270 271 272 272 272 272 273 273 274 274 276 277 279 281 283 285 287 289 291 294 295 296 297 299 300 302 304 305 305 306 305 304 303 303 304 305 307 309 310 311
270 271 272 272 272 272 272 272 272 272 273 274 275 275 276 278 279 280 282 284 286 289 291 293 295 296 298 299 301 302 303 304 305 306 305 304 304 304 305 306 308 309 309 310
270 272 273 273 273 273 274 274 273 273 274 275 275 275 276 278 279 280 281 283 285 287 290 293 294 296 297 299 301 303 304 304 305 305 305 304 304 305 305 306 308 309 310 310
Height
5683 5681 5680 5679 5678 5677 5675 5674 5674 5673 5672 5671 5669 5668 5667 5666 5664 5663 5661 5659 5657 5655 5653 5651 5649 5646 5643 5641 5638 5636 5633 5631 5628 5626 5623 5620 5618 5615 5612 5610 5608 5606 5605 5603
5683 5681 5680 5678 5677 5675 5674 5673 5672 5671 5670 5668 5667 5666 5665 5663 5662 5660 5658 5656 5654 5652 5650 5648 5646 5643 5640 5638 5635 5633 5630 5628 5625 5622 5619 5617 5614 5611 5609 5606 5604 5602 5600 5598
5683 5680 5679 5678 5677 5675 5673 5672 5670 5669 5669 5666 5665 5663 5662 5661 5660 5658 5656 5654 5652 5650 5648 5645 5643 5640 5638 5635 5633 5630 5627 5625 5622 5619 5616 5613 5610 5607 5605 5602 5599 5597 5595 5593
5681 5681 5678 5679 5675 5673 5671 5670 5668 5667 5665 5664 5663 5661 5660 5658 5657 5655 5653 5652 5650 5647 5645 5643 5640 5638 5635 5632 5630 5627 5624 5621 5618 5615 5612 5609 5606 5603 5601 5598 5595 5592 5589 5587
5679 5677 5677 5676 5673 5670 5669 5668 5666 5665 5663 5662 5660 5659 5657 5656 5654 5652 5651 5648 5646 5644 5642 5640 5637 5635 5632 5629 5626 5624 5621 5618 5615 5612 5608 5605 5602 5599 5596 5593 5590 5586 5583 5580
5676 5674 5674 5674 5671 5667 5667 5666 5664 5662 5660 5659 5657 5656 5655 5652 5650 5649 5647 5645 5643 5640 5638 5636 5633 5631 5628 5625 5622 5619 5616 5613 5610 5607 5604 5600 5597 5594 5590 5587 5583 5580 5576 5573
5672 5669 5670 5670 5667 5665 5664 5663 5660 5658 5657 5655 5654 5653 5651 5648 5646 5644 5642 5640 5638 5636 5633 5631 5629 5626 5623 5620 5618 5615 5612 5608 5605 5601 5598 5595 5591 5588 5584 5580 5576 5572 5568 5565
5667 5665 5667 5664 5661 5660 5659 5657 5655 5653 5652 5650 5649 5647 5645 5643 5641 5639 5637 5635 5633 5631 5628 5626 5623 5621 5618 5615 5612 5609 5606 5602 5599 5595 5592 5588 5584 5580 5576 5572 5568 5563 5559 5556
5662 5663 5660 5657 5655 5653 5652 5651 5649 5647 5646 5644 5643 5641 5639 5637 5636 5634 5632 5629 5627 5625 5623 5620 5617 5615 5612 5609 5605 5602 5599 5595 5592 5588 5584 5580 5576 5572 5568 5564 5559 5555 5551 5547
5654 5655 5652 5649 5647 5646 5645 5643 5642 5640 5639 5637 5636 5634 5633 5631 5629 5627 5625 5623 5621 5618 5616 5613 5611 5608 5605 5602 5598 5595 5591 5588 5584 5580 5576 5572 5568 5563 5559 5555 5550 5545 5541 5537
5644 5645 5643 5641 5639 5638 5636 5635 5634 5633 5631 5630 5628 5627 5625 5623 5621 5619 5617 5615 5613 5610 5608 5606 5603 5600 5597 5594 5590 5587 5583 5580 5576 5571 5567 5563 5558 5554 5549 5545 5540 5535 5531 5526
5635 5635 5633 5632 5630 5628 5627 5626 5625 5624 5623 5621 5620 5618 5616 5614 5612 5610 5608 5606 5604 5602 5599 5597 5594 5591 5588 5585 5582 5578 5574 5570 5566 5562 5558 5553 5549 5544 5539 5534 5529 5524 5519 5514
5625 5624 5622 5622 5621 5619 5617 5616 5615 5614 5613 5612 5611 5609 5607 5606 5603 5601 5599 5597 5595 5593 5590 5588 5585 5582 5579 5576 5572 5569 5565 5561 5557 5553 5548 5544 5539 5534 5529 5523 5518 5513 5508 5502
5613 5612 5611 5611 5610 5609 5607 5606 5605 5604 5602 5601 5600 5599 5597 5596 5594 5592 5590 5588 5585 5583 5580 5578 5575 5572 5569 5566 5562 5559 5555 5551 5547 5542 5538 5533 5528 5523 5518 5512 5507 5501 5496 5490
5602 5600 5600 5599 5599 5598 5596 5595 5594 5593 5592 5590 5589 5588 5587 5585 5584 5582 5580 5577 5575 5573 5570 5567 5565 5562 5559 5556 5552 5549 5545 5541 5536 5532 5527 5522 5517 5512 5506 5500 5495 5489 5484 5478
5589 5588 5587 5587 5586 5585 5584 5584 5583 5582 5581 5579 5578 5577 5576 5574 5573 5571 5569 5567 5565 5562 5560 5557 5554 5551 5548 5545 5542 5538 5534 5530 5525 5521 5516 5511 5505 5500 5494 5489 5483 5477 5472 5466
5575 5575 5575 5575 5574 5573 5573 5572 5571 5571 5569 5568 5567 5566 5565 5563 5562 5560 5558 5556 5554 5552 5549 5547 5544 5541 5538 5535 5531 5527 5523 5519 5514 5509 5504 5499 5494 5488 5483 5477 5471 5465 5460 5454
5561 5562 5562 5562 5561 5561 5561 5560 5559 5559 5558 5557 5556 5555 5553 5552 5550 5549 5547 5545 5543 5540 5538 5536 5533 5530 5527 5523 5520 5516 5512 5507 5503 5498 5492 5487 5482 5476 5471 5465 5460 5453 5447 5441
5548 5548 5548 5548 5548 5548 5548 5548 5547 5547 5546 5545 5545 5543 5542 5541 5539 5537 5535 5533 5531 5529 5527 5524 5522 5519 5516 5512 5509 5505 5501 5496 5491 5486 5481 5475 5470 5465 5459 5454 5448 5442 5436 5430
5535 5535 5535 5535 5535 5535 5535 5535 5535 5534 5534 5533 5532 5531 5530 5529 5527 5526 5524 5522 5520 5518 5516 5513 5511 5508 5505 5501 5498 5494 5489 5485 5480 5474 5469 5464 5459 5454 5448 5443 5437 5431 5426 5420
5523 5523 5523 5523 5523 5523 5523 5522 5522 5522 5521 5521 5520 5519 5518 5517 5516 5514 5513 5511 5509 5507 5505 5502 5500 5497 5493 5490 5486 5482 5478 5473 5468 5463 5458 5453 5448 5443 5438 5432 5427 5421 5416 5411
5511 5511 5511 5511 5511 5511 5511 5511 5510 5510 5509 5509 5508 5507 5506 5505 5504 5503 5501 5500 5498 5496 5494 5491 5489 5485 5482 5479 5475 5471 5467 5462 5457 5452 5447 5442 5437 5432 5427 5422 5417 5412 5407 5402
5500 5500 5500 5500 5500 5500 5499 5499 5499 5498 5498 5497 5496 5496 5495 5494 5493 5492 5490 5489 5487 5485 5483 5480 5477 5474 5471 5467 5464 5460 5455 5451 5446 5441 5436 5432 5427 5422 5418 5413 5408 5403 5399 5394
5488 5488 5488 5488 5488 5488 5488 5487 5487 5487 5486 5485 5485 5484 5483 5482 5481 5480 5479 5477 5475 5473 5471 5469 5466 5463 5459 5456 5452 5448 5444 5439 5435 5430 5426 5421 5417 5412 5408 5404 5400 5395 5391 5386
5476 5476 5477 5477 5477 5476 5476 5475 5475 5475 5474 5473 5473 5472 5471 5470 5470 5469 5467 5466 5464 5462 5460 5458 5455 5452 5448 5445 5441 5437 5433 5429 5424 5420 5415 5411 5407 5403 5399 5395 5391 5387 5382 5378
5464 5464 5464 5464 5464 5464 5463 5463 5463 5462 5462 5461 5461 5460 5459 5459 5458 5457 5456 5455 5453 5451 5449 5447 5444 5441 5438 5434 5430 5427 5423 5418 5414 5410 5406 5402 5398 5395 5391 5387 5383 5379 5374 5370
5451 5451 5451 5451 5451 5451 5450 5450 5450 5450 5449 5449 5449 5448 5448 5447 5446 5445 5444 5443 5442 5440 5438 5436 5433 5430 5427 5424 5420 5416 5412 5409 5405 5401 5397 5394 5390 5386 5382 5379 5375 5370 5366 5362